Location: Zagreb
(45.8000°N, 16.0000°E)
Time: 14:25:47
(UTC+02:00)

Vanguard 1 - Pass Details

Date: 16 August 2022
Orbit: 649 x 3832 km, 34.2° (Epoch: 25 September)

Event Time Altitude Azimuth Distance (km) Brightness Sun altitude
Rises 10:06:41 0° 280° (W) 7,250 14.1 41.4°
Reaches altitude 10° 10:11:53 10° 272° (W) 6,530 13.9 42.2°
Maximum altitude 10:30:18 34° 218° (SW) 5,144 14.0 45.0°
Drops below altitude 10° 10:48:10 10° 162° (SSE) 6,272 14.9 47.5°
Sets 10:53:08 0° 154° (SSE) 6,936 15.0 48.2°
